"Pseudo-MPEC" for X78240

Created 2022 Sep 2 15:23:29 UT using Find_Orb

Click here for an explanation of pseudo-MPECs

 
 Astrometry: 
     X78240 * C2022 07 02PU;V^y6=yy9:5i]P?VQNHrM(O=,*n,9/=QbSH-bVB+6Y5.Rl9'n1D29
     X78240   C2022 07 02.v;%(yMi86`Dy9l;.Kv9aU)IbubCiM+?h0Gg^jZtP$sDphDY9uLTD29
     X78240   C2022 07 02*UWl*?iMGtl5+nWC^kqioE3?31x'`K[k9]12M83!+I,yZ)7K!@FmD29
     X78240  KC2022 07 039YYl`?qv0QiHUOUiP`87_L@vwAWAstrometryqgJ0!)V;#Mk3%Z5221
     X78240  KC2022 07 03A6dv%;6qRuwLLtn)E5-/jkf,n9w[r2q:[j'P'R\V)c\#WeHFsW7d221
     X78240  KC2022 07 03ww27Nm/`#bTHC*OOA_X*B5;a7;Zo,xF)d]2XGLP$i*LfiU0;Nn]d221
     X78240  5C2022 07 04cxU$3$eeKnP.Zb/-84vC`2pXv1ajH%-FZeY_PE0yOrY7(@OppL03119
     X78240  5C2022 07 04^E4k,Xm1enFQM+'Lo!g:redacted;lIZv?QH*a0cOp.I[s='$k2`119
     X78240  LC2022 07 07q'fMIZclicksr;olFrvd3,MbbwJ2YDO`tsbFT)M#cFPXpB$hrBUX807
     X78240  LC2022 07 07JquGB-@6gBe:_eHh8L+8Vd.RBPJe_(iW#6yd=sU^;tR9B+LNC\l,807
     X78240  LC2022 07 074468SvAvSx3,=*%LBttO9tqx!yA]E'L4dgn_d!8Q-/[f[#`5Qi(K807
     X78240  KC2022 07 09.93120519 37 06.04 -15 26 26.5    ~7ABb       XNEOCPC95
     X78240  KC2022 07 09.95802619 37 05.28 -15 26 30.2    ~7ABb 18.1 GXNEOCPC95
     X78240  KC2022 07 24aL:!d`]6t!T;hereI:forYJRdW;EwP]e-'mYhM_\(Ive9J@n@iby221
     X78240  KC2022 07 249ndJ/cG_@_$Mfq`.xFjIAlck211seoexplanationg)@Plg5fL9n221

Station data:
(119) Abastuman  (N41.753624 E42.820000)  Georgia.
(221) IAS Observatory, Hakos  (S23.236367 E16.361700)  Namibia.  Observers D.
   Husar, L. Demetz. Measurer D. Husar. 0.2-m f/3 Riccardi-Honders + CCD0.5-m
   f/6.8 Corrected Dall-Kirkham + CCD.
(807) Cerro Tololo Observatory, La Serena  (S30.169133 W70.805900)  Chile.
   Observers T. Linder, R. Holmes. 0.61-m f/6.5 astrograph + CCD.
(C95) SATINO Remote Observatory, Haute Provence  (N43.932040 E5.712390)
   France.  Observer J. Jahn. 0.60-m f/3.2 Newtonian reflector + CCD.
(D29) Purple Mountain Observatory, XuYi Station  (N32.734363 E118.463900)
   China.  Observers H. B. Zhao, B. Li, G. Zhaori, R. Q. Hong, L. F. Hu.
   Measurers H. B. Zhao, B. Li. H. Lu, G. Zhaori. 1.04-m f/1.8 Schmidt + CCD.

Orbital elements:  X78240
   Perihelion 2023 Jun 29.12074 +/- 3.8 TT =  2:53:51 (JD 2460124.62074)
Epoch 2022 Jul 24.0 TT = JDT 2459784.5   Ju: 0.0582   Sa: 0.0318   Ur: 0.2021
M 359.75835574 +/- 0.11             (J2000 ecliptic)          AutoNEOCP
n   0.00071046 +/- 0.000331         Peri.  128.13761 +/- 0.50
a 124.386660 +/- 38.7               Node   225.79272 +/- 0.22
e   0.9722118 +/- 0.00875           Incl.    5.16531 +/- 0.015
P1387.27                   H 13.5   G  0.15   U  7.4
q 3.45647656 +/- 0.0142    Q 245.316844 +/- 76.7
From 15 observations 2022 July 2-24; mean residual 0".65
Residuals in arcseconds: 
220702 D29  1.4+  .27+    220703 221  .17-  .05+    220707 807  1.1+  .11-    
220702 D29  .01+  .33+    220704 119  1.5-  .07-    220709 C95  .28-  1.5+    
220702 D29  1.2-  .22-    220704 119  .18+  .26+    220709 C95  .28-  1.4-    
220703 221  .03+  .00     220707 807  .11+  .26+    220724 221  .00   .01-    
220703 221  .59+  .68-    220707 807  .38+  .25-    220724 221  .01+  .00     

Ephemerides (geocentric):
Date (UTC) HH   RA             Dec           delta  r     elong  mag " sig PA
---- --------  ------------   ------------  ------ ------ -----  --- --------
2022 09 02 15  19 17 33.501   -16 17 33.06  3.6665 4.3679 128.6 20.2 45.2  97
2022 09 02 16  19 17 33.304   -16 17 35.44  3.6667 4.3677 128.6 20.2 45.3  97
2022 09 02 17  19 17 33.109   -16 17 37.82  3.6670 4.3674 128.5 20.2 45.4  97
2022 09 02 18  19 17 32.915   -16 17 40.20  3.6673 4.3672 128.5 20.2 45.5  97
2022 09 02 19  19 17 32.722   -16 17 42.58  3.6675 4.3670 128.5 20.2 45.5  97
2022 09 02 20  19 17 32.531   -16 17 44.95  3.6678 4.3668 128.4 20.2 45.6  97
2022 09 02 21  19 17 32.342   -16 17 47.32  3.6681 4.3666 128.4 20.2 45.7  97
2022 09 02 22  19 17 32.154   -16 17 49.69  3.6683 4.3664 128.3 20.2 45.8  97
2022 09 02 23  19 17 31.968   -16 17 52.06  3.6686 4.3661 128.3 20.2 45.9  97
2022 09 03 00  19 17 31.783   -16 17 54.43  3.6689 4.3659 128.2 20.2 46.0  97
2022 09 03 01  19 17 31.600   -16 17 56.80  3.6691 4.3657 128.2 20.2 46.1  97
2022 09 03 02  19 17 31.418   -16 17 59.16  3.6694 4.3655 128.2 20.2 46.2  97
2022 09 03 03  19 17 31.238   -16 18 01.52  3.6697 4.3653 128.1 20.2 46.3  97
2022 09 03 04  19 17 31.060   -16 18 03.88  3.6699 4.3651 128.1 20.2 46.4  97
2022 09 03 05  19 17 30.883   -16 18 06.24  3.6702 4.3648 128.0 20.2 46.5  97
2022 09 03 06  19 17 30.708   -16 18 08.60  3.6705 4.3646 128.0 20.2 46.6  97
2022 09 03 07  19 17 30.534   -16 18 10.96  3.6707 4.3644 128.0 20.2 46.7  97
2022 09 03 08  19 17 30.362   -16 18 13.32  3.6710 4.3642 127.9 20.2 46.8  97
2022 09 03 09  19 17 30.191   -16 18 15.67  3.6713 4.3640 127.9 20.2 46.9  97
2022 09 03 10  19 17 30.022   -16 18 18.02  3.6716 4.3637 127.8 20.2 47.0  97
2022 09 03 11  19 17 29.855   -16 18 20.37  3.6718 4.3635 127.8 20.2 47.1  97
2022 09 03 12  19 17 29.689   -16 18 22.72  3.6721 4.3633 127.8 20.2 47.2  97
2022 09 03 13  19 17 29.524   -16 18 25.07  3.6724 4.3631 127.7 20.2 47.3  97
2022 09 03 14  19 17 29.362   -16 18 27.42  3.6726 4.3629 127.7 20.2 47.4  97
2022 09 03 15  19 17 29.200   -16 18 29.76  3.6729 4.3627 127.6 20.2 47.5  97
2022 09 03 16  19 17 29.041   -16 18 32.10  3.6732 4.3624 127.6 20.2 47.6  97
2022 09 03 17  19 17 28.883   -16 18 34.44  3.6735 4.3622 127.6 20.2 47.7  97
2022 09 03 18  19 17 28.726   -16 18 36.78  3.6737 4.3620 127.5 20.2 47.8  97
2022 09 03 19  19 17 28.571   -16 18 39.12  3.6740 4.3618 127.5 20.2 47.9  97
2022 09 03 20  19 17 28.418   -16 18 41.46  3.6743 4.3616 127.4 20.2 48.0  97
2022 09 03 21  19 17 28.266   -16 18 43.79  3.6745 4.3613 127.4 20.2 48.1  97
2022 09 03 22  19 17 28.116   -16 18 46.13  3.6748 4.3611 127.4 20.2 48.2  97
2022 09 03 23  19 17 27.967   -16 18 48.46  3.6751 4.3609 127.3 20.2 48.3  97
2022 09 04 00  19 17 27.820   -16 18 50.79  3.6754 4.3607 127.3 20.2 48.4  97
2022 09 04 01  19 17 27.675   -16 18 53.12  3.6756 4.3605 127.2 20.2 48.5  97
2022 09 04 02  19 17 27.531   -16 18 55.45  3.6759 4.3603 127.2 20.2 48.6  97
2022 09 04 03  19 17 27.388   -16 18 57.77  3.6762 4.3600 127.1 20.2 48.7  97
2022 09 04 04  19 17 27.248   -16 19 00.09  3.6765 4.3598 127.1 20.2 48.8  97
2022 09 04 05  19 17 27.108   -16 19 02.42  3.6767 4.3596 127.1 20.2 48.9  97
2022 09 04 06  19 17 26.971   -16 19 04.74  3.6770 4.3594 127.0 20.2 49.0  97
2022 09 04 07  19 17 26.835   -16 19 07.06  3.6773 4.3592 127.0 20.2 49.1  97
2022 09 04 08  19 17 26.700   -16 19 09.37  3.6776 4.3590 126.9 20.2 49.2  97
2022 09 04 09  19 17 26.567   -16 19 11.69  3.6779 4.3587 126.9 20.2 49.3  97
2022 09 04 10  19 17 26.436   -16 19 14.00  3.6781 4.3585 126.9 20.2 49.4  97
2022 09 04 11  19 17 26.306   -16 19 16.32  3.6784 4.3583 126.8 20.2 49.5  97
2022 09 04 12  19 17 26.178   -16 19 18.63  3.6787 4.3581 126.8 20.2 49.6  97
2022 09 04 13  19 17 26.051   -16 19 20.94  3.6790 4.3579 126.7 20.2 49.7  97
2022 09 04 14  19 17 25.926   -16 19 23.24  3.6792 4.3577 126.7 20.2 49.8  97